Flag for U.S.A. Weather past 2 weeks in Aurora, Colorado, U.S.A.

Now
58 °F

Partly cloudy.


Feels Like: 59 °F
Forecast: 42 / 62 °F
Wind: 3 mph from Northwest

Location: Buckley Air Force Base

Current Time: Sep 30, 2014 at 10:00:54 PM

Latest Report: Sep 30, 2014 at 8:58 PM


Visibility: 10 mi

Pressure: 29.75 "Hg

Humidity: 39%

Dew point: 33 °F

Location of AuroraLocation

Historic Weather in Aurora — Graph

°F

Aurora temperature yesterday

Maximum temperature yesterday: 67 °F (at 1:58 PM)
Minimum temperature yesterday: 46 °F (at 11:58 PM)
Average temperature yesterday: 53 °F

Past Weeks' High & Low Weather Summary

 TemperatureHumidityPressure
High88 °F (Sep 17, 3:58 PM)100% (Sep 21, 10:58 PM)30.31 "Hg (Sep 21, 10:58 PM)
Low44 °F (Sep 30, 6:58 AM)14% (Sep 17, 2:58 PM)29.70 "Hg (Sep 30, 2:58 PM)
Average66 °F51%29.93 "Hg
* Reported Sep 15 7:58 PM — Sep 30 7:58 PM, Aurora, Weather by CustomWeather, © 2014

Note: Actual official high and low records may vary slightly from our data, if they occured in-between our weather recording intervals... More about our weather records

Advertising

Aurora weather history for previous 24 hours

 ConditionsComfort  
Time TempWeatherWind HumidityBarometerVisibility
7:58 PM
Sep 30
59 °FPartly cloudy.16 mph38%29.76 "Hg10 mi
6:58 PM58 °FPartly sunny.2 mph52%29.75 "Hg10 mi
5:58 PM61 °FPartly sunny.3 mph42%29.73 "Hg10 mi
4:58 PM63 °FBroken clouds.2 mph30%29.71 "Hg10 mi
3:58 PM63 °FBroken clouds.3 mph31%29.71 "Hg10 mi
2:58 PM65 °FBroken clouds.17 mph29%29.70 "Hg10 mi
1:58 PM65 °FBroken clouds.17 mph30%29.72 "Hg10 mi
12:58 PM66 °FBroken clouds.18 mph28%29.72 "Hg10 mi
11:58 AM64 °FScattered clouds.15 mph28%29.72 "Hg10 mi
10:58 AM62 °FScattered clouds.7 mphN/A29.75 "Hg10 mi
9:58 AM59 °FPassing clouds.8 mph39%29.76 "Hg10 mi
8:58 AM55 °FPassing clouds.7 mph48%29.76 "Hg10 mi
7:58 AM49 °FPassing clouds.7 mph61%29.75 "Hg10 mi
6:58 AM44 °FPassing clouds.12 mph76%29.76 "Hg10 mi
5:58 AM44 °FPassing clouds.10 mph79%29.76 "Hg10 mi
4:58 AM45 °FPassing clouds.15 mph77%29.74 "Hg10 mi
3:58 AM44 °FPassing clouds.10 mph87%29.76 "Hg10 mi
2:58 AM44 °FPassing clouds.12 mph99%29.74 "Hg10 mi
1:58 AM44 °FPassing clouds.10 mph100%29.72 "Hg10 mi
12:58 AM44 °FPassing clouds.8 mph100%29.75 "Hg10 mi
11:58 PM
Sep 29
46 °FPassing clouds.5 mph100%29.77 "Hg10 mi
10:58 PM46 °FPassing clouds.5 mph100%29.82 "Hg10 mi
Weather by CustomWeather, © 2014

See weather overviewHow to use our weather pages